Location: C.E.K. Mees Observatory
(42.7003°N, 77.4088°W)
Time: 03:20:02
(UTC-05:00)

Vanguard 2 - Visible Passes

Search period start: 17 December 2017 00:00
Search period end: 27 December 2017 00:00
Orbit: 553 x 2939 km, 32.9° (Epoch: 16 December)

Date Brightness Start Highest point End Pass type
(mag) Time Alt. Az. Time Alt. Az. Time Alt. Az.
17 Dec 9.5 17:19:06 10° WSW 17:24:23 27° SSW 17:28:16 10° SE visible
18 Dec 9.6 17:37:21 10° WSW 17:42:10 23° SSW 17:45:49 10° SSE visible
19 Dec 9.7 17:55:48 10° WSW 17:59:53 19° SSW 18:03:09 10° SSE visible
20 Dec 10.0 18:14:38 10° WSW 18:17:32 14° SSW 18:20:00 10° S visible
24 Dec 10.4 17:16:16 10° WSW 17:20:58 17° SW 17:24:38 10° S visible
25 Dec 10.8 17:35:52 10° WSW 17:38:26 12° SW 17:40:40 10° SSW visible
